| time (UTC) | temp C | wind direction | speed KPH | gust KPH | rain 1hr cm | rain 24hr cm | rain mn cm | humidity % | barometer mb |
| 20260506033355 | 13 | 263 | 0.0 | 11.3 | 0.00 | 0.08 | 0.08 | 47 | 815.2 |
| 20260506032855 | 13 | 259 | 0.0 | 9.7 | 0.00 | 0.08 | 0.08 | 46 | 815.1 |
| 20260506032359 | 13 | 253 | 0.0 | 8.0 | 0.00 | 0.08 | 0.08 | 45 | 814.9 |
| 20260506032355 | 13 | 259 | 1.6 | 9.7 | 0.00 | 0.08 | 0.08 | 46 | 815.1 |
| 20260506032002 | 13 | 236 | 0.0 | 4.8 | 0.00 | 0.08 | 0.08 | 44 | 814.8 |
| 20260506031356 | 13 | 232 | 0.0 | 4.8 | 0.00 | 0.08 | 0.08 | 45 | 814.9 |
| 20260506030353 | 13 | 245 | 0.0 | 4.8 | 0.00 | 0.08 | 0.08 | 44 | 814.8 |
| 20260506025856 | 13 | 244 | 1.6 | 14.5 | 0.00 | 0.08 | 0.08 | 44 | 814.6 |
| 20260506025353 | 13 | 270 | 0.0 | 14.5 | 0.00 | 0.08 | 0.08 | 42 | 814.5 |
| 20260506024855 | 14 | 251 | 0.0 | 16.1 | 0.00 | 0.08 | 0.08 | 42 | 814.5 |
| 20260506024353 | 14 | 263 | 1.6 | 16.1 | 0.00 | 0.08 | 0.08 | 42 | 814.5 |
| 20260506023853 | 14 | 268 | 1.6 | 9.7 | 0.00 | 0.08 | 0.08 | 42 | 814.4 |
| 20260506023357 | 15 | 261 | 0.0 | 6.4 | 0.00 | 0.08 | 0.08 | 39 | 814.2 |
| 20260506023353 | 14 | 294 | 1.6 | 9.7 | 0.00 | 0.08 | 0.08 | 42 | 814.3 |
| 20260506022852 | 14 | 253 | 1.6 | 9.7 | 0.00 | 0.08 | 0.08 | 41 | 814.3 |
| 20260506022351 | 15 | 301 | 0.0 | 9.7 | 0.00 | 0.08 | 0.08 | 41 | 814.2 |
| 20260506021352 | 15 | 271 | 0.0 | 11.3 | 0.00 | 0.08 | 0.08 | 38 | 814.0 |
| 20260506020856 | 15 | 260 | 1.6 | 12.9 | 0.00 | 0.08 | 0.08 | 38 | 813.9 |
| 20260506020851 | 15 | 240 | 1.6 | 12.9 | 0.00 | 0.08 | 0.08 | 38 | 814.0 |
| 20260506020500 | 15 | 296 | 1.6 | 12.9 | 0.00 | 0.08 | 0.08 | 38 | 813.8 |
| 20260506015957 | 15 | 242 | 1.6 | 11.3 | 0.00 | 0.08 | 0.08 | 38 | 813.8 |
| 20260506014851 | 15 | 267 | 1.6 | 6.4 | 0.00 | 0.08 | 0.08 | 37 | 813.7 |
| 20260506014350 | 16 | 310 | 1.6 | 12.9 | 0.00 | 0.08 | 0.08 | 37 | 813.6 |
| 20260506013852 | 16 | 260 | 1.6 | 12.9 | 0.00 | 0.08 | 0.08 | 37 | 813.6 |
| 20260506013350 | 16 | 257 | 1.6 | 12.9 | 0.00 | 0.08 | 0.08 | 37 | 813.5 |
| 20260506012850 | 16 | 187 | 1.6 | 12.9 | 0.00 | 0.08 | 0.08 | 35 | 813.6 |
| 20260506012349 | 16 | 219 | 1.6 | 14.5 | 0.00 | 0.08 | 0.08 | 34 | 813.6 |
| 20260506011849 | 16 | 212 | 1.6 | 14.5 | 0.00 | 0.08 | 0.08 | 34 | 813.5 |
| 20260506011349 | 16 | 237 | 1.6 | 14.5 | 0.00 | 0.08 | 0.08 | 34 | 813.5 |
| 20260506010849 | 16 | 232 | 1.6 | 9.7 | 0.00 | 0.08 | 0.08 | 34 | 813.6 |
| 20260506010349 | 16 | 245 | 1.6 | 11.3 | 0.00 | 0.08 | 0.08 | 34 | 813.6 |
| 20260506005849 | 16 | 178 | 1.6 | 16.1 | 0.00 | 0.08 | 0.08 | 33 | 813.6 |
| 20260506005350 | 16 | 217 | 1.6 | 16.1 | 0.00 | 0.08 | 0.08 | 32 | 813.5 |
| 20260506004853 | 17 | 254 | 3.2 | 24.1 | 0.00 | 0.08 | 0.08 | 30 | 813.5 |
| 20260506004849 | 16 | 255 | 3.2 | 24.1 | 0.00 | 0.08 | 0.08 | 32 | 813.6 |
| 20260506003849 | 17 | 213 | 1.6 | 12.9 | 0.00 | 0.08 | 0.08 | 29 | 813.5 |
| 20260506003350 | 18 | 259 | 1.6 | 9.7 | 0.00 | 0.08 | 0.08 | 28 | 813.4 |
| 20260506002849 | 18 | 223 | 3.2 | 16.1 | 0.00 | 0.08 | 0.08 | 29 | 813.5 |
| 20260506002347 | 18 | 195 | 4.8 | 24.1 | 0.00 | 0.08 | 0.08 | 28 | 813.5 |
| 20260506001851 | 18 | 208 | 4.8 | 24.1 | 0.00 | 0.08 | 0.08 | 30 | 813.3 |
| 20260506001847 | 18 | 248 | 3.2 | 24.1 | 0.00 | 0.08 | 0.08 | 29 | 813.4 |
| 20260506001454 | 18 | 266 | 4.8 | 24.1 | 0.00 | 0.08 | 0.08 | 31 | 813.4 |
| 20260506000953 | 18 | 226 | 3.2 | 32.2 | 0.00 | 0.08 | 0.08 | 31 | 813.3 |
| 20260505235847 | 17 | 182 | 3.2 | 32.2 | 0.00 | 0.08 | 0.08 | 31 | 813.4 |
| 20260505235347 | 17 | 205 | 1.6 | 27.4 | 0.00 | 0.08 | 0.08 | 32 | 813.4 |
| 20260505234850 | 17 | 219 | 1.6 | 9.7 | 0.00 | 0.08 | 0.08 | 35 | 813.4 |
| 20260505234845 | 17 | 205 | 1.6 | 12.9 | 0.00 | 0.08 | 0.08 | 35 | 813.4 |
| 20260505233845 | 17 | 220 | 1.6 | 19.3 | 0.00 | 0.08 | 0.08 | 35 | 813.4 |
| 20260505233343 | 17 | 173 | 1.6 | 20.9 | 0.00 | 0.08 | 0.08 | 34 | 813.4 |
| 20260505232843 | 17 | 191 | 3.2 | 20.9 | 0.00 | 0.08 | 0.08 | 36 | 813.4 |
| 20260505232342 | 17 | 217 | 3.2 | 19.3 | 0.00 | 0.08 | 0.08 | 35 | 813.5 |
| 20260505231842 | 17 | 227 | 3.2 | 24.1 | 0.00 | 0.08 | 0.08 | 35 | 813.5 |
| 20260505231340 | 17 | 265 | 1.6 | 24.1 | 0.00 | 0.08 | 0.08 | 35 | 813.5 |
| 20260505230841 | 17 | 213 | 3.2 | 20.9 | 0.00 | 0.08 | 0.08 | 37 | 813.5 |
| 20260505230341 | 17 | 222 | 3.2 | 20.9 | 0.00 | 0.08 | 0.08 | 38 | 813.6 |
| 20260505225841 | 17 | 207 | 0.0 | 17.7 | 0.00 | 0.08 | 0.08 | 39 | 813.6 |
| 20260505225340 | 17 | 191 | 0.0 | 14.5 | 0.00 | 0.08 | 0.08 | 40 | 813.6 |
| 20260505224840 | 17 | 277 | 1.6 | 19.3 | 0.00 | 0.08 | 0.08 | 41 | 813.7 |
| 20260505224340 | 17 | 217 | 1.6 | 19.3 | 0.00 | 0.08 | 0.08 | 39 | 813.8 |
| 20260505223840 | 17 | 202 | 1.6 | 14.5 | 0.00 | 0.08 | 0.08 | 40 | 813.8 |
| 20260505223341 | 17 | 201 | 1.6 | 14.5 | 0.00 | 0.08 | 0.08 | 41 | 813.8 |
| 20260505222841 | 17 | 198 | 0.0 | 14.5 | 0.00 | 0.08 | 0.08 | 42 | 813.9 |
| 20260505222341 | 17 | 207 | 0.0 | 6.4 | 0.00 | 0.08 | 0.08 | 42 | 813.8 |
| 20260505221841 | 17 | 229 | 0.0 | 11.3 | 0.00 | 0.08 | 0.08 | 43 | 813.8 |
| 20260505221341 | 17 | 217 | 0.0 | 11.3 | 0.00 | 0.08 | 0.08 | 44 | 813.9 |
| 20260505220842 | 17 | 212 | 0.0 | 3.2 | 0.00 | 0.08 | 0.08 | 46 | 814.0 |
| 20260505220341 | 17 | 258 | 0.0 | 9.7 | 0.00 | 0.08 | 0.08 | 48 | 814.1 |
| 20260505215840 | 17 | 163 | 1.6 | 17.7 | 0.00 | 0.08 | 0.08 | 49 | 814.2 |
| 20260505215341 | 16 | 224 | 1.6 | 17.7 | 0.03 | 0.08 | 0.08 | 51 | 814.2 |
| 20260505214840 | 16 | 172 | 1.6 | 11.3 | 0.03 | 0.08 | 0.08 | 52 | 814.5 |
| 20260505214340 | 16 | 209 | 1.6 | 11.3 | 0.03 | 0.08 | 0.08 | 52 | 814.6 |
| 20260505213841 | 16 | 178 | 0.0 | 12.9 | 0.03 | 0.08 | 0.08 | 56 | 814.6 |
| 20260505213343 | 15 | 179 | 0.0 | 1.6 | 0.03 | 0.08 | 0.08 | 63 | 814.8 |
| 20260505213338 | 15 | 248 | 0.0 | 12.9 | 0.03 | 0.08 | 0.08 | 58 | 814.8 |
| 20260505212344 | 14 | 163 | 0.0 | 0.0 | 0.03 | 0.08 | 0.08 | 68 | 815.1 |
| 20260505212338 | 15 | 184 | 0.0 | 0.0 | 0.03 | 0.08 | 0.08 | 67 | 815.0 |
| 20260505211339 | 14 | 205 | 0.0 | 1.6 | 0.03 | 0.08 | 0.08 | 68 | 814.9 |
| 20260505210839 | 14 | 206 | 0.0 | 1.6 | 0.03 | 0.08 | 0.08 | 66 | 815.0 |
| 20260505210338 | 14 | 184 | 0.0 | 8.0 | 0.03 | 0.08 | 0.08 | 65 | 815.1 |
| 20260505205836 | 15 | 204 | 0.0 | 14.5 | 0.03 | 0.08 | 0.08 | 61 | 815.2 |
| 20260505205336 | 15 | 251 | 0.0 | 14.5 | 0.00 | 0.05 | 0.05 | 58 | 815.3 |
| 20260505204836 | 16 | 237 | 0.0 | 17.7 | 0.00 | 0.05 | 0.05 | 53 | 815.2 |
| 20260505204336 | 16 | 242 | 1.6 | 17.7 | 0.00 | 0.05 | 0.05 | 48 | 815.2 |
| 20260505203834 | 16 | 238 | 1.6 | 22.5 | 0.00 | 0.05 | 0.05 | 47 | 815.1 |
| 20260505203334 | 17 | 215 | 0.0 | 22.5 | 0.00 | 0.05 | 0.05 | 46 | 815.2 |
| 20260505202902 | 17 | 229 | 0.0 | 1.6 | 0.00 | 0.05 | 0.05 | 46 | 815.3 |
| 20260505202839 | 17 | 257 | 0.0 | 4.8 | 0.00 | 0.05 | 0.05 | 45 | 815.3 |
| 20260505202835 | 17 | 273 | 0.0 | 11.3 | 0.00 | 0.05 | 0.05 | 45 | 815.3 |
| 20260505201330 | 17 | 255 | 0.0 | 6.4 | 0.00 | 0.05 | 0.05 | 45 | 815.3 |
| 20260505200830 | 17 | 215 | 0.0 | 6.4 | 0.00 | 0.05 | 0.05 | 45 | 815.5 |
| 20260505200331 | 17 | 252 | 0.0 | 17.7 | 0.00 | 0.05 | 0.05 | 48 | 815.5 |
| 20260505195831 | 17 | 240 | 0.0 | 17.7 | 0.00 | 0.05 | 0.05 | 47 | 815.6 |
| 20260505195328 | 17 | 177 | 0.0 | 8.0 | 0.00 | 0.05 | 0.05 | 49 | 815.7 |
| 20260505194829 | 17 | 227 | 0.0 | 3.2 | 0.00 | 0.05 | 0.05 | 52 | 815.7 |
| 20260505194329 | 16 | 265 | 0.0 | 6.4 | 0.00 | 0.05 | 0.05 | 51 | 815.6 |
| 20260505193829 | 16 | 228 | 0.0 | 14.5 | 0.00 | 0.05 | 0.05 | 52 | 815.8 |
| 20260505193328 | 16 | 215 | 0.0 | 14.5 | 0.00 | 0.05 | 0.05 | 54 | 815.9 |
| 20260505192831 | 16 | 238 | 0.0 | 3.2 | 0.00 | 0.05 | 0.05 | 54 | 815.7 |
| 20260505192827 | 16 | 265 | 0.0 | 4.8 | 0.00 | 0.05 | 0.05 | 54 | 816.0 |
| 20260505191826 | 15 | 209 | 0.0 | 4.8 | 0.00 | 0.05 | 0.05 | 57 | 816.1 |
| 20260505191327 | 15 | 248 | 0.0 | 1.6 | 0.00 | 0.05 | 0.05 | 56 | 816.1 |
| 20260505190826 | 15 | 261 | 0.0 | 14.5 | 0.00 | 0.05 | 0.05 | 58 | 816.2 |
| 20260505190326 | 15 | 214 | 0.0 | 14.5 | 0.00 | 0.05 | 0.05 | 57 | 816.3 |
| 20260505185826 | 15 | 306 | 0.0 | 4.8 | 0.00 | 0.05 | 0.05 | 62 | 816.3 |
| 20260505185326 | 14 | 254 | 0.0 | 3.2 | 0.00 | 0.05 | 0.05 | 62 | 816.4 |
| 20260505184828 | 14 | 243 | 0.0 | 1.6 | 0.00 | 0.05 | 0.05 | 65 | 816.5 |
| 20260505184326 | 14 | 311 | 0.0 | 1.6 | 0.00 | 0.05 | 0.05 | 63 | 816.6 |
| 20260505183826 | 14 | 213 | 0.0 | 3.2 | 0.00 | 0.05 | 0.05 | 63 | 816.6 |
| 20260505183324 | 14 | 215 | 0.0 | 4.8 | 0.00 | 0.05 | 0.05 | 63 | 816.6 |
| 20260505182829 | 14 | 213 | 0.0 | 3.2 | 0.00 | 0.05 | 0.05 | 63 | 816.6 |
| 20260505182825 | 14 | 283 | 0.0 | 4.8 | 0.00 | 0.05 | 0.05 | 64 | 816.6 |
| 20260505181823 | 14 | 203 | 0.0 | 3.2 | 0.00 | 0.05 | 0.05 | 63 | 816.6 |
| 20260505181324 | 13 | 276 | 0.0 | 1.6 | 0.00 | 0.05 | 0.05 | 67 | 816.7 |
| 20260505180827 | 14 | 261 | 0.0 | 1.6 | 0.00 | 0.05 | 0.05 | 65 | 816.7 |
| 20260505180823 | 13 | 299 | 0.0 | 6.4 | 0.00 | 0.05 | 0.05 | 68 | 816.6 |
| 20260505175829 | 13 | 230 | 0.0 | 9.7 | 0.00 | 0.05 | 0.05 | 67 | 816.6 |
| 20260505175822 | 13 | 212 | 0.0 | 8.0 | 0.00 | 0.05 | 0.05 | 67 | 816.6 |
| 20260505175323 | 13 | 252 | 0.0 | 8.0 | 0.00 | 0.05 | 0.05 | 68 | 816.6 |
| 20260505174930 | 13 | 270 | 0.0 | 16.1 | 0.00 | 0.05 | 0.05 | 68 | 816.6 |
| 20260505173821 | 13 | 214 | 0.0 | 16.1 | 0.00 | 0.05 | 0.05 | 69 | 816.5 |
| 20260505173319 | 13 | 235 | 0.0 | 12.9 | 0.00 | 0.05 | 0.05 | 69 | 816.6 |
| 20260505172819 | 13 | 227 | 0.0 | 12.9 | 0.00 | 0.05 | 0.05 | 69 | 816.4 |
| 20260505172320 | 13 | 271 | 0.0 | 12.9 | 0.00 | 0.05 | 0.05 | 69 | 816.5 |
| 20260505171824 | 13 | 209 | 0.0 | 8.0 | 0.00 | 0.05 | 0.05 | 72 | 816.5 |
| 20260505171820 | 13 | 298 | 0.0 | 12.9 | 0.00 | 0.05 | 0.05 | 72 | 816.4 |
| 20260505170820 | 12 | 210 | 0.0 | 8.0 | 0.00 | 0.05 | 0.05 | 73 | 816.6 |
| 20260505170320 | 12 | 259 | 0.0 | 1.6 | 0.00 | 0.05 | 0.05 | 75 | 816.5 |
| 20260505165819 | 12 | 279 | 0.0 | 3.2 | 0.00 | 0.05 | 0.05 | 75 | 816.4 |
| 20260505165325 | 12 | 246 | 0.0 | 0.0 | 0.00 | 0.05 | 0.05 | 77 | 816.3 |
| 20260505165319 | 12 | 243 | 0.0 | 3.2 | 0.00 | 0.05 | 0.05 | 75 | 816.5 |
| 20260505164927 | 12 | 225 | 0.0 | 0.0 | 0.00 | 0.05 | 0.05 | 77 | 816.3 |
| 20260505163819 | 11 | 251 | 0.0 | 4.8 | 0.00 | 0.05 | 0.05 | 79 | 816.3 |
| 20260505163317 | 11 | 255 | 0.0 | 6.4 | 0.00 | 0.05 | 0.05 | 79 | 816.3 |
| 20260505162822 | 11 | 267 | 0.0 | 0.0 | 0.00 | 0.05 | 0.05 | 81 | 816.4 |
| 20260505162817 | 11 | 282 | 0.0 | 6.4 | 0.00 | 0.05 | 0.05 | 79 | 816.3 |
| 20260505161818 | 11 | 267 | 0.0 | 1.6 | 0.00 | 0.05 | 0.05 | 80 | 816.4 |
| 20260505161322 | 11 | 284 | 0.0 | 0.0 | 0.00 | 0.05 | 0.05 | 82 | 816.3 |
| 20260505161318 | 11 | 209 | 0.0 | 1.6 | 0.00 | 0.05 | 0.05 | 81 | 816.3 |
| 20260505160929 | 10 | 284 | 0.0 | 0.0 | 0.00 | 0.05 | 0.05 | 81 | 816.2 |
| 20260505160925 | 10 | 284 | 0.0 | 0.0 | 0.00 | 0.05 | 0.05 | 82 | 816.2 |
| 20260505153318 | 10 | 317 | 0.0 | 0.0 | 0.00 | 0.05 | 0.05 | 86 | 816.2 |
| 20260505152818 | 9 | 317 | 0.0 | 0.0 | 0.00 | 0.05 | 0.05 | 86 | 816.3 |
| 20260505152319 | 9 | 319 | 0.0 | 0.0 | 0.00 | 0.05 | 0.05 | 85 | 816.1 |
| 20260505151818 | 9 | 299 | 0.0 | 0.0 | 0.00 | 0.05 | 0.05 | 85 | 816.1 |
| 20260505151318 | 9 | 299 | 0.0 | 0.0 | 0.00 | 0.05 | 0.05 | 84 | 816.2 |
| 20260505150817 | 9 | 290 | 0.0 | 0.0 | 0.00 | 0.05 | 0.05 | 84 | 816.1 |
| 20260505150317 | 8 | 290 | 0.0 | 0.0 | 0.00 | 0.05 | 0.05 | 84 | 816.3 |
| 20260505140315 | 8 | 323 | 0.0 | 0.0 | 0.00 | 0.05 | 0.05 | 87 | 815.8 |
| 20260505130311 | 7 | 317 | 0.0 | 0.0 | 0.05 | 0.05 | 0.05 | 86 | 815.9 |
| 20260505124812 | 7 | 317 | 0.0 | 0.0 | 0.05 | 0.05 | 0.05 | 84 | 816.2 |
| 20260505124312 | 7 | 317 | 0.0 | 0.0 | 0.05 | 0.05 | 0.05 | 83 | 815.9 |
| 20260505123810 | 7 | 296 | 0.0 | 0.0 | 0.05 | 0.05 | 0.05 | 82 | 816.0 |
| 20260505123309 | 7 | 270 | 0.0 | 6.4 | 0.05 | 0.05 | 0.05 | 82 | 816.4 |
| 20260505122813 | 8 | 267 | 0.0 | 11.3 | 0.05 | 0.05 | 0.05 | 81 | 816.8 |
| 20260505122809 | 8 | 219 | 0.0 | 11.3 | 0.05 | 0.05 | 0.05 | 81 | 816.7 |
| 20260505121809 | 8 | 260 | 0.0 | 0.0 | 0.03 | 0.03 | 0.03 | 81 | 817.0 |
| 20260505121309 | 8 | 244 | 0.0 | 3.2 | 0.03 | 0.03 | 0.03 | 79 | 816.8 |
| 20260505120811 | 8 | 266 | 1.6 | 24.1 | 0.03 | 0.03 | 0.03 | 77 | 816.9 |
| 20260505120310 | 8 | 265 | 1.6 | 24.1 | 0.00 | 0.00 | 0.00 | 75 | 816.8 |
| 20260505115809 | 9 | 253 | 1.6 | 14.5 | 0.00 | 0.00 | 0.00 | 72 | 816.7 |
| 20260505115309 | 10 | 271 | 1.6 | 16.1 | 0.00 | 0.00 | 0.00 | 69 | 816.6 |
| 20260505114809 | 10 | 307 | 1.6 | 16.1 | 0.00 | 0.00 | 0.00 | 68 | 816.6 |
| 20260505114309 | 10 | 303 | 3.2 | 30.6 | 0.00 | 0.00 | 0.00 | 68 | 816.5 |
| 20260505113807 | 10 | 236 | 3.2 | 30.6 | 0.00 | 0.00 | 0.00 | 67 | 816.5 |
| 20260505113307 | 11 | 257 | 1.6 | 22.5 | 0.00 | 0.00 | 0.00 | 66 | 816.4 |
| 20260505112914 | 11 | 244 | 0.0 | 9.7 | 0.00 | 0.00 | 0.00 | 68 | 816.4 |
| 20260505112813 | 11 | 275 | 1.6 | 19.3 | 0.00 | 0.00 | 0.00 | 66 | 816.6 |
| 20260505112808 | 11 | 179 | 1.6 | 19.3 | 0.00 | 0.00 | 0.00 | 66 | 816.4 |
| 20260505111913 | 11 | 271 | 0.0 | 1.6 | 0.00 | 0.00 | 0.00 | 73 | 816.4 |
| 20260505110807 | 11 | 281 | 0.0 | 11.3 | 0.00 | 0.00 | 0.00 | 73 | 816.3 |
| 20260505110307 | 11 | 250 | 0.0 | 11.3 | 0.00 | 0.00 | 0.00 | 73 | 816.2 |
| 20260505101303 | 11 | 284 | 0.0 | 6.4 | 0.00 | 0.00 | 0.00 | 73 | 816.3 |
| 20260505100800 | 11 | 273 | 0.0 | 6.4 | 0.00 | 0.00 | 0.00 | 73 | 816.2 |
| 20260505100301 | 11 | 269 | 0.0 | 9.7 | 0.00 | 0.00 | 0.00 | 73 | 816.2 |
| 20260505095804 | 11 | 280 | 0.0 | 9.7 | 0.00 | 0.00 | 0.00 | 73 | 816.3 |
| 20260505095300 | 11 | 207 | 0.0 | 0.0 | 0.00 | 0.00 | 0.00 | 72 | 816.5 |
| 20260505094805 | 11 | 288 | 0.0 | 9.7 | 0.00 | 0.00 | 0.00 | 72 | 816.5 |
| 20260505094800 | 11 | 205 | 0.0 | 14.5 | 0.00 | 0.00 | 0.00 | 72 | 816.7 |
| 20260505094259 | 11 | 242 | 0.0 | 14.5 | 0.00 | 0.00 | 0.00 | 72 | 816.6 |
| 20260505093258 | 11 | 233 | 0.0 | 11.3 | 0.00 | 0.00 | 0.00 | 72 | 816.2 |
| 20260505092803 | 10 | 262 | 0.0 | 4.8 | 0.00 | 0.00 | 0.00 | 72 | 816.3 |
| 20260505092759 | 10 | 252 | 0.0 | 11.3 | 0.00 | 0.00 | 0.00 | 72 | 816.3 |
| 20260505091758 | 10 | 261 | 0.0 | 6.4 | 0.00 | 0.00 | 0.00 | 74 | 816.4 |
| 20260505091257 | 10 | 261 | 0.0 | 6.4 | 0.00 | 0.00 | 0.00 | 75 | 816.5 |
| 20260505090759 | 9 | 277 | 0.0 | 8.0 | 0.00 | 0.00 | 0.00 | 77 | 816.3 |
| 20260505090755 | 10 | 265 | 0.0 | 8.0 | 0.00 | 0.00 | 0.00 | 76 | 816.4 |
| 20260505085759 | 9 | 263 | 0.0 | 1.6 | 0.00 | 0.00 | 0.00 | 77 | 816.5 |
| 20260505085755 | 9 | 270 | 0.0 | 1.6 | 0.00 | 0.00 | 0.00 | 77 | 816.4 |
| 20260505085401 | 9 | 313 | 0.0 | 0.0 | 0.00 | 0.00 | 0.00 | 77 | 816.4 |
| 20260505084754 | 9 | 313 | 0.0 | 0.0 | 0.00 | 0.00 | 0.00 | 77 | 816.5 |
| 20260505083756 | 9 | 317 | 0.0 | 0.0 | 0.00 | 0.00 | 0.00 | 77 | 816.5 |
| 20260505083255 | 9 | 317 | 0.0 | 0.0 | 0.00 | 0.00 | 0.00 | 77 | 816.6 |
| 20260505082754 | 9 | 317 | 0.0 | 0.0 | 0.00 | 0.00 | 0.00 | 76 | 816.6 |
| 20260505082254 | 9 | 317 | 0.0 | 0.0 | 0.00 | 0.00 | 0.00 | 76 | 816.9 |
| 20260505081753 | 9 | 317 | 0.0 | 0.0 | 0.00 | 0.00 | 0.00 | 75 | 816.9 |
| 20260505081257 | 9 | 317 | 0.0 | 0.0 | 0.00 | 0.00 | 0.00 | 75 | 816.7 |
| 20260505081253 | 9 | 317 | 0.0 | 0.0 | 0.00 | 0.00 | 0.00 | 75 | 817.0 |
| 20260505080253 | 10 | 317 | 0.0 | 0.0 | 0.00 | 0.00 | 0.00 | 74 | 816.9 |
| 20260505075759 | 10 | 317 | 0.0 | 0.0 | 0.00 | 0.00 | 0.00 | 72 | 817.3 |
| 20260505075753 | 10 | 317 | 0.0 | 0.0 | 0.00 | 0.00 | 0.00 | 74 | 816.9 |
| 20260505075253 | 10 | 317 | 0.0 | 0.0 | 0.00 | 0.00 | 0.00 | 73 | 816.9 |
| 20260505074753 | 10 | 317 | 0.0 | 0.0 | 0.00 | 0.00 | 0.00 | 72 | 817.1 |
| 20260505074359 | 10 | 317 | 0.0 | 0.0 | 0.00 | 0.00 | 0.00 | 71 | 817.3 |
| 20260505073253 | 10 | 317 | 0.0 | 0.0 | 0.00 | 0.00 | 0.00 | 71 | 817.2 |
| 20260505072751 | 10 | 317 | 0.0 | 0.0 | 0.00 | 0.00 | 0.00 | 71 | 817.2 |
| 20260505072251 | 10 | 317 | 0.0 | 0.0 | 0.00 | 0.00 | 0.00 | 71 | 816.9 |
| 20260505071751 | 10 | 317 | 0.0 | 0.0 | 0.00 | 0.00 | 0.00 | 70 | 817.1 |
| 20260505071250 | 10 | 317 | 0.0 | 0.0 | 0.00 | 0.00 | 0.00 | 70 | 817.2 |
| 20260505070750 | 10 | 317 | 0.0 | 0.0 | 0.00 | 0.00 | 0.00 | 70 | 817.1 |
| 20260505070250 | 10 | 318 | 0.0 | 0.0 | 0.00 | 0.00 | 0.00 | 70 | 816.9 |
| 20260505065750 | 10 | 318 | 0.0 | 0.0 | 0.00 | 0.00 | 0.00 | 70 | 817.0 |
| 20260505065251 | 10 | 318 | 0.0 | 0.0 | 0.00 | 0.00 | 0.00 | 69 | 817.2 |
| 20260505064754 | 11 | 318 | 0.0 | 0.0 | 0.00 | 0.00 | 0.00 | 68 | 817.2 |
| 20260505064750 | 10 | 318 | 0.0 | 0.0 | 0.00 | 0.00 | 0.00 | 69 | 817.2 |
| 20260505063750 | 11 | 318 | 0.0 | 0.0 | 0.00 | 0.00 | 0.00 | 67 | 817.3 |
| 20260505063251 | 11 | 318 | 0.0 | 0.0 | 0.00 | 0.00 | 0.00 | 67 | 817.3 |
| 20260505062750 | 11 | 318 | 0.0 | 0.0 | 0.00 | 0.00 | 0.00 | 66 | 817.2 |
| 20260505062251 | 11 | 317 | 0.0 | 0.0 | 0.00 | 0.00 | 0.00 | 66 | 817.1 |
| 20260505061748 | 11 | 311 | 0.0 | 0.0 | 0.00 | 0.00 | 0.00 | 66 | 816.9 |
| 20260505061254 | 11 | 325 | 0.0 | 0.0 | 0.00 | 0.00 | 0.00 | 65 | 816.7 |
| 20260505061248 | 11 | 330 | 0.0 | 0.0 | 0.00 | 0.00 | 0.00 | 65 | 816.8 |
| 20260505060247 | 11 | 327 | 0.0 | 0.0 | 0.00 | 0.00 | 0.00 | 64 | 816.6 |
| 20260505055747 | 11 | 319 | 0.0 | 0.0 | 0.00 | 0.00 | 0.00 | 64 | 816.6 |
| 20260505055247 | 11 | 5 | 0.0 | 0.0 | 0.00 | 0.00 | 0.00 | 63 | 816.7 |
| 20260505054746 | 11 | 348 | 0.0 | 0.0 | 0.00 | 0.00 | 0.00 | 63 | 817.0 |
| 20260505054246 | 11 | 334 | 0.0 | 1.6 | 0.00 | 0.00 | 0.00 | 63 | 816.8 |
| 20260505053745 | 11 | 319 | 0.0 | 1.6 | 0.00 | 0.00 | 0.00 | 63 | 817.1 |
| 20260505053243 | 11 | 330 | 0.0 | 0.0 | 0.00 | 0.00 | 0.00 | 63 | 817.3 |
| 20260505052743 | 11 | 318 | 0.0 | 0.0 | 0.00 | 0.00 | 0.00 | 63 | 817.6 |
| 20260505052243 | 12 | 315 | 0.0 | 1.6 | 0.00 | 0.00 | 0.00 | 63 | 817.6 |
| 20260505051744 | 12 | 341 | 0.0 | 1.6 | 0.00 | 0.00 | 0.00 | 63 | 817.6 |
| 20260505051245 | 12 | 323 | 0.0 | 1.6 | 0.00 | 0.00 | 0.00 | 62 | 817.5 |
| 20260505050744 | 12 | 323 | 0.0 | 1.6 | 0.00 | 0.00 | 0.00 | 62 | 817.5 |
| 20260505050243 | 12 | 333 | 0.0 | 0.0 | 0.00 | 0.00 | 0.00 | 62 | 817.5 |
| 20260505041743 | 12 | 310 | 0.0 | 8.0 | 0.00 | 0.00 | 0.00 | 60 | 817.4 |
| 20260505041242 | 12 | 310 | 0.0 | 8.0 | 0.00 | 0.00 | 0.00 | 59 | 817.4 |
| 20260505040741 | 12 | 344 | 0.0 | 8.0 | 0.00 | 0.00 | 0.00 | 58 | 817.5 |
| 20260505040242 | 12 | 270 | 0.0 | 16.1 | 0.00 | 0.00 | 0.00 | 57 | 817.6 |
| 20260505035742 | 13 | 306 | 0.0 | 19.3 | 0.00 | 0.00 | 0.00 | 56 | 817.6 |
| 20260505035238 | 13 | 346 | 0.0 | 19.3 | 0.00 | 0.00 | 0.00 | 55 | 817.6 |
| 20260505034742 | 13 | 292 | 0.0 | 12.9 | 0.00 | 0.00 | 0.00 | 52 | 817.4 |
| 20260505034737 | 13 | 311 | 0.0 | 8.0 | 0.00 | 0.00 | 0.00 | 54 | 817.6 |
| 20260505034236 | 13 | 282 | 0.0 | 12.9 | 0.00 | 0.00 | 0.00 | 53 | 817.5 |
| 20260505033841 | 13 | 304 | 0.0 | 12.9 | 0.00 | 0.00 | 0.00 | 51 | 817.5 |